Location: Sternwarte auf dem Internationalen Platz Vogelsang IP
(50.5721°N, 6.4398°E)
Time: 04:33:12
(UTC+01:00)

Transit 2A Rocket - Pass Details

Date: 11 December 2025
Orbit: 581 x 903 km, 66.7° (Epoch: 13 January)

Event Time Altitude Azimuth Distance (km) Brightness Sun altitude
Rises 18:19:25 0° 320° (NW) 3,535 8.8 -16.3°
Reaches altitude 10° 18:22:01 10° 316° (NW) 2,585 8.1 -16.7°
Maximum altitude 18:27:51 52° 242° (WSW) 1,092 6.2 -17.6°
Drops below altitude 10° 18:33:23 10° 168° (SSE) 2,458 7.6 -18.5°
Sets 18:35:49 0° 163° (SSE) 3,347 8.3 -18.9°
